DW1779 Weather Reports


Display with metric or nautical units.
time (UTC)temp
F
wind
direction
speed
MPH
gust
MPH
rain 1hr
in
rain 24hr
in
rain mn
in
humidity
%
barometer
mb
20260903100652 70 161 0.0 0.0 0.00 0.00 0.00 94 1017.0
20260903100048 70 161 0.0 0.0 0.00 0.00 0.00 94 1017.0
20260903095547 70 161 0.0 0.0 0.00 0.00 0.00 94 1017.0
20260903095047 70 161 0.0 0.0 0.00 0.00 0.00 94 1017.0
20260903094556 70 161 0.0 0.0 0.00 0.00 0.00 94 1017.0
20260903094046 70 161 0.0 0.0 0.00 0.00 0.00 94 1016.9
20260903093546 70 161 0.0 0.0 0.00 0.00 0.00 94 1017.0
20260903093120 70 161 0.0 0.0 0.00 0.00 0.00 94 1017.0
20260903092546 70 161 0.0 0.0 0.00 0.00 0.00 93 1016.9
20260903092046 70 161 0.0 0.0 0.00 0.00 0.00 93 1017.0
20260903091552 70 161 0.0 0.0 0.00 0.00 0.00 93 1017.0
20260903091046 70 161 0.0 0.0 0.00 0.00 0.00 93 1017.0
20260903090646 70 161 0.0 0.0 0.00 0.00 0.00 93 1017.0
20260903090050 70 161 0.0 0.0 0.00 0.00 0.00 93 1017.0
20260903085548 70 161 0.0 0.0 0.00 0.00 0.00 93 1016.9
20260903085048 71 161 0.0 0.0 0.00 0.00 0.00 92 1017.1
20260903084548 71 161 0.0 0.0 0.00 0.00 0.00 92 1017.0
20260903084048 71 161 0.0 0.0 0.00 0.00 0.00 92 1017.0
20260903083548 71 161 0.0 0.0 0.00 0.00 0.00 92 1016.9
20260903083051 71 161 0.0 0.0 0.00 0.00 0.00 92 1017.0
20260903082547 71 161 0.0 0.0 0.00 0.00 0.00 92 1017.0
20260903082046 71 161 0.0 0.0 0.00 0.00 0.00 91 1016.9
20260903081545 71 161 0.0 0.0 0.00 0.00 0.00 91 1016.9
20260903081044 71 161 0.0 0.0 0.00 0.00 0.00 91 1016.8
20260903080644 72 161 0.0 0.0 0.00 0.00 0.00 91 1016.8
20260903080045 72 161 0.0 0.0 0.00 0.00 0.00 91 1016.8
20260903075548 72 161 0.0 0.0 0.00 0.00 0.00 91 1016.8
20260903075048 72 161 0.0 1.0 0.00 0.00 0.00 91 1016.8
20260903074546 72 161 0.0 1.0 0.00 0.00 0.00 91 1016.9
20260903074043 72 161 0.0 0.0 0.00 0.00 0.00 91 1016.9
20260903073543 72 161 0.0 0.0 0.00 0.00 0.00 90 1016.9
20260903073043 72 161 0.0 0.0 0.00 0.00 0.00 91 1016.9
20260903072541 72 161 0.0 0.0 0.00 0.00 0.00 90 1016.9
20260903072041 72 161 0.0 0.0 0.00 0.00 0.00 90 1017.0
20260903071554 72 161 0.0 0.0 0.00 0.00 0.00 90 1017.0
20260903071041 72 161 0.0 0.0 0.00 0.00 0.00 90 1017.0
20260903070642 72 161 0.0 0.0 0.00 0.00 0.00 90 1017.0
20260903070058 73 161 0.0 1.0 0.00 0.00 0.00 90 1017.0
20260903065547 73 161 0.0 0.0 0.00 0.00 0.00 89 1017.0
20260903065042 73 161 0.0 0.0 0.00 0.00 0.00 89 1017.0
20260903064542 73 161 0.0 1.0 0.00 0.00 0.00 88 1017.0
20260903064042 73 161 0.0 1.0 0.00 0.00 0.00 88 1017.1
20260903063542 73 157 0.0 2.0 0.00 0.00 0.00 88 1017.0
20260903063042 73 157 0.0 3.0 0.00 0.00 0.00 88 1017.0
20260903062541 73 148 0.0 3.0 0.00 0.00 0.00 88 1017.0
20260903062041 73 164 0.0 2.0 0.00 0.00 0.00 89 1017.1
20260903061542 73 158 0.0 3.0 0.00 0.00 0.00 89 1017.0
20260903061039 74 158 0.0 3.0 0.00 0.00 0.00 89 1017.1
20260903060501 74 144 0.0 1.0 0.00 0.00 0.00 88 1017.1
20260903055600 74 142 0.0 2.0 0.00 0.00 0.00 88 1017.1
20260903055058 74 170 0.0 5.0 0.00 0.00 0.00 88 1017.0
20260903054558 74 138 0.0 5.0 0.00 0.00 0.00 88 1016.9
20260903054058 74 178 0.0 2.0 0.00 0.00 0.00 87 1016.9
20260903053558 74 190 0.0 4.0 0.00 0.00 0.00 87 1016.9
20260903053056 75 190 0.0 4.0 0.00 0.00 0.00 86 1016.9
20260903052556 75 178 0.0 3.0 0.00 0.00 0.00 86 1016.9
20260903052055 75 140 0.0 3.0 0.00 0.00 0.00 85 1016.9
20260903051555 75 147 0.0 3.0 0.00 0.00 0.00 86 1016.9
20260903051053 75 146 1.0 4.0 0.00 0.00 0.00 86 1016.9
20260903050654 75 129 1.0 4.0 0.00 0.00 0.00 85 1016.8
20260903050107 75 144 0.0 3.0 0.00 0.00 0.00 84 1016.8
20260903045551 76 145 0.0 3.0 0.00 0.00 0.00 84 1016.7
20260903045050 76 186 0.0 3.0 0.00 0.00 0.00 83 1016.8
20260903044559 76 147 0.0 3.0 0.00 0.00 0.00 83 1016.7
20260903044050 76 146 0.0 2.0 0.00 0.00 0.00 83 1016.8
20260903043550 77 146 0.0 2.0 0.00 0.00 0.00 82 1016.8
20260903043049 77 198 0.0 3.0 0.00 0.00 0.00 82 1016.8
20260903042550 77 209 0.0 3.0 0.00 0.00 0.00 82 1016.7
20260903042054 77 188 0.0 2.0 0.00 0.00 0.00 83 1016.7
20260903041605 77 198 0.0 2.0 0.00 0.00 0.00 82 1016.8
20260903041049 77 196 0.0 3.0 0.00 0.00 0.00 81 1016.8
20260903040650 78 161 0.0 3.0 0.00 0.00 0.00 81 1016.7
20260903040052 78 193 0.0 3.0 0.00 0.00 0.00 81 1016.7
20260903035547 78 168 1.0 5.0 0.00 0.00 0.00 79 1016.7
20260903035046 78 171 1.0 5.0 0.00 0.00 0.00 79 1016.6
20260903034546 79 182 0.0 5.0 0.00 0.00 0.00 78 1016.6
20260903034046 79 179 1.0 4.0 0.00 0.00 0.00 78 1016.4
20260903033545 79 162 1.0 4.0 0.00 0.00 0.00 78 1016.4
20260903033046 79 174 0.0 3.0 0.00 0.00 0.00 78 1016.4
20260903032546 79 155 0.0 5.0 0.00 0.00 0.00 78 1016.4
20260903032045 80 172 0.0 5.0 0.00 0.00 0.00 77 1016.6
20260903031544 80 162 1.0 5.0 0.00 0.00 0.00 76 1016.5
20260903031047 80 188 1.0 4.0 0.00 0.00 0.00 77 1016.5
20260903030645 80 148 0.0 4.0 0.00 0.00 0.00 76 1016.5
20260903030041 80 176 1.0 6.0 0.00 0.00 0.00 77 1016.5
20260903025540 80 170 2.0 6.0 0.00 0.00 0.00 77 1016.5
20260903025040 80 186 1.0 6.0 0.00 0.00 0.00 77 1016.4
20260903024541 80 165 2.0 6.0 0.00 0.00 0.00 77 1016.5
20260903024039 80 156 2.0 5.0 0.00 0.00 0.00 76 1016.6
20260903023540 80 177 1.0 5.0 0.00 0.00 0.00 76 1016.5
20260903023043 80 150 1.0 9.0 0.00 0.00 0.00 75 1016.5
20260903022542 81 165 1.0 6.0 0.00 0.00 0.00 75 1016.5
20260903022039 81 171 1.0 5.0 0.00 0.00 0.00 75 1016.4
20260903021539 81 155 1.0 6.0 0.00 0.00 0.00 74 1016.4
20260903021041 80 195 1.0 7.0 0.00 0.00 0.00 75 1016.3
20260903020639 80 171 1.0 7.0 0.00 0.00 0.00 76 1016.2
20260903015558 80 206 1.0 6.0 0.00 0.00 0.00 76 1016.1
20260903015058 80 189 1.0 5.0 0.00 0.00 0.00 76 1016.0
20260903014623 80 144 1.0 4.0 0.00 0.00 0.00 76 1015.9
20260903014101 81 168 0.0 5.0 0.00 0.00 0.00 75 1015.9
20260903013557 81 176 1.0 5.0 0.00 0.00 0.00 75 1015.7
20260903013107 81 192 1.0 3.0 0.00 0.00 0.00 74 1015.7
20260903012557 81 192 1.0 3.0 0.00 0.00 0.00 74 1015.6
20260903012057 81 184 0.0 1.0 0.00 0.00 0.00 74 1015.6
20260903011557 81 184 0.0 2.0 0.00 0.00 0.00 73 1015.4
20260903011057 81 155 0.0 2.0 0.00 0.00 0.00 72 1015.4
20260903010656 82 165 0.0 2.0 0.00 0.00 0.00 71 1015.4
20260903010057 82 154 0.0 7.0 0.00 0.00 0.00 71 1015.4
20260903005557 82 157 1.0 7.0 0.00 0.00 0.00 70 1015.4
20260903005056 82 119 1.0 4.0 0.00 0.00 0.00 69 1015.4
20260903004600 82 121 0.0 3.0 0.00 0.00 0.00 68 1015.5
20260903004055 83 108 0.0 2.0 0.00 0.00 0.00 69 1015.4
20260903003556 84 157 0.0 2.0 0.00 0.00 0.00 65 1015.4
20260903003109 85 148 1.0 3.0 0.00 0.00 0.00 63 1015.5
20260903002555 86 170 1.0 3.0 0.00 0.00 0.00 62 1015.4
20260903002055 86 187 1.0 3.0 0.00 0.00 0.00 59 1015.3
20260903001555 87 182 1.0 8.0 0.00 0.00 0.00 59 1015.3
20260903001054 88 159 2.0 8.0 0.00 0.00 0.00 58 1015.2
20260903000653 89 161 1.0 5.0 0.00 0.00 0.00 53 1015.3
20260903000104 90 157 3.0 8.0 0.00 0.00 0.00 54 1015.3
20260902235555 91 126 3.0 10.0 0.00 0.00 0.00 50 1015.3
20260902235052 91 131 4.0 10.0 0.00 0.00 0.00 52 1015.3
20260902234552 91 193 3.0 8.0 0.00 0.00 0.00 50 1015.3
20260902234053 92 123 2.0 6.0 0.00 0.00 0.00 48 1015.3
20260902233550 92 137 2.0 8.0 0.00 0.00 0.00 48 1015.2
20260902233050 93 145 2.0 10.0 0.00 0.00 0.00 44 1015.3
20260902232551 93 149 4.0 10.0 0.00 0.00 0.00 44 1015.3
20260902232049 93 144 3.0 8.0 0.00 0.00 0.00 44 1015.3
20260902231549 93 128 2.0 8.0 0.00 0.00 0.00 48 1015.3
20260902231049 93 327 3.0 9.0 0.00 0.00 0.00 47 1015.3
20260902230649 94 225 3.0 9.0 0.00 0.00 0.00 45 1015.3
20260902230057 94 170 3.0 7.0 0.00 0.00 0.00 46 1015.3
20260902225552 94 129 2.0 9.0 0.00 0.00 0.00 48 1015.3
20260902225047 94 182 3.0 10.0 0.00 0.00 0.00 45 1015.3
20260902224605 94 223 3.0 10.0 0.00 0.00 0.00 46 1015.2
20260902224046 94 143 2.0 8.0 0.00 0.00 0.00 45 1015.2
20260902223549 94 181 3.0 8.0 0.00 0.00 0.00 47 1015.3
20260902223055 93 173 2.0 12.0 0.00 0.00 0.00 49 1015.3
20260902222545 93 159 5.0 12.0 0.00 0.00 0.00 48 1015.3
20260902222045 91 122 2.0 7.0 0.00 0.00 0.00 50 1015.4
20260902221545 92 130 2.0 7.0 0.00 0.00 0.00 50 1015.4
20260902221045 93 160 1.0 12.0 0.00 0.00 0.00 48 1015.4
20260902220644 94 131 3.0 12.0 0.00 0.00 0.00 45 1015.3
20260902220044 95 175 5.0 12.0 0.00 0.00 0.00 43 1015.5
20260902215543 95 184 3.0 9.0 0.00 0.00 0.00 43 1015.5
20260902215047 95 162 1.0 9.0 0.00 0.00 0.00 46 1015.5
20260902214610 96 159 3.0 9.0 0.00 0.00 0.00 44 1015.6
20260902214042 95 141 2.0 9.0 0.00 0.00 0.00 46 1015.6
20260902213541 95 155 2.0 10.0 0.00 0.00 0.00 43 1015.7
20260902213042 96 175 4.0 9.0 0.00 0.00 0.00 43 1015.7
20260902212541 97 211 4.0 10.0 0.00 0.00 0.00 41 1015.7
20260902212041 98 207 4.0 10.0 0.00 0.00 0.00 41 1015.6
20260902211541 97 173 3.0 7.0 0.00 0.00 0.00 41 1015.6
20260902211040 97 173 2.0 7.0 0.00 0.00 0.00 40 1015.7
20260902210639 97 209 3.0 10.0 0.00 0.00 0.00 40 1015.7
20260902210100 97 206 2.0 10.0 0.00 0.00 0.00 40 1015.7
20260902205600 97 169 3.0 9.0 0.00 0.00 0.00 42 1015.7
20260902205058 98 127 3.0 9.0 0.00 0.00 0.00 39 1015.7
20260902204607 98 200 2.0 8.0 0.00 0.00 0.00 41 1015.8
20260902204058 98 248 2.0 10.0 0.00 0.00 0.00 41 1015.9
20260902203557 98 165 4.0 11.0 0.00 0.00 0.00 40 1015.9
20260902203057 98 213 5.0 11.0 0.00 0.00 0.00 41 1016.0
20260902202557 98 165 3.0 10.0 0.00 0.00 0.00 45 1016.0
20260902202057 98 173 4.0 12.0 0.00 0.00 0.00 39 1016.1
20260902201621 99 113 5.0 12.0 0.00 0.00 0.00 39 1016.1
20260902201055 98 217 3.0 11.0 0.00 0.00 0.00 40 1016.1
20260902200656 99 191 4.0 11.0 0.00 0.00 0.00 40 1016.3
20260902200057 100 180 3.0 8.0 0.00 0.00 0.00 43 1016.4
20260902195556 99 225 4.0 11.0 0.00 0.00 0.00 40 1016.4
20260902195055 98 169 4.0 11.0 0.00 0.00 0.00 41 1016.5
20260902194554 97 219 2.0 10.0 0.00 0.00 0.00 46 1016.5
20260902194052 95 239 0.0 8.0 0.00 0.00 0.00 49 1016.6
20260902193556 95 164 2.0 11.0 0.00 0.00 0.00 45 1016.7
20260902193053 96 124 2.0 10.0 0.00 0.00 0.00 43 1016.7
20260902192552 95 244 2.0 6.0 0.00 0.00 0.00 46 1016.9
20260902192052 96 257 1.0 8.0 0.00 0.00 0.00 45 1016.9
20260902191552 96 191 4.0 8.0 0.00 0.00 0.00 46 1016.9
20260902191050 96 355 2.0 8.0 0.00 0.00 0.00 46 1016.9
20260902190653 93 342 2.0 5.0 0.00 0.00 0.00 50 1017.0
20260902190049 89 40 1.0 6.0 0.00 0.00 0.00 62 1017.1
20260902185548 90 101 1.0 6.0 0.00 0.00 0.00 58 1017.3
20260902185047 92 200 1.0 4.0 0.00 0.00 0.00 60 1017.2
20260902184547 94 323 1.0 5.0 0.00 0.00 0.00 47 1017.3
20260902184046 95 294 1.0 5.0 0.00 0.00 0.00 46 1017.4
20260902183546 95 232 0.0 5.0 0.00 0.00 0.00 45 1017.4
20260902183046 96 318 2.0 5.0 0.00 0.00 0.00 43 1017.5
20260902182545 97 264 2.0 6.0 0.00 0.00 0.00 45 1017.5
20260902182045 96 194 1.0 7.0 0.00 0.00 0.00 47 1017.6
20260902181545 96 276 1.0 4.0 0.00 0.00 0.00 49 1017.7
20260902181044 95 167 0.0 5.0 0.00 0.00 0.00 46 1017.7
20260902180644 95 272 2.0 5.0 0.00 0.00 0.00 46 1017.7
20260902180046 95 340 1.0 4.0 0.00 0.00 0.00 46 1017.7
20260902175546 95 315 1.0 7.0 0.00 0.00 0.00 46 1017.9
20260902175045 96 107 2.0 7.0 0.00 0.00 0.00 46 1017.9
20260902174550 95 129 2.0 4.0 0.00 0.00 0.00 51 1017.8
20260902174046 95 82 0.0 7.0 0.00 0.00 0.00 47 1018.0
20260902173543 95 138 3.0 7.0 0.00 0.00 0.00 45 1018.2
20260902173042 95 182 0.0 4.0 0.00 0.00 0.00 48 1018.1
20260902172542 95 192 2.0 6.0 0.00 0.00 0.00 46 1018.2
20260902172044 96 198 3.0 6.0 0.00 0.00 0.00 43 1018.2
20260902171543 96 183 2.0 6.0 0.00 0.00 0.00 44 1018.3
20260902171040 96 15 1.0 4.0 0.00 0.00 0.00 44 1018.3
20260902170510 97 165 1.0 5.0 0.00 0.00 0.00 48 1018.5
20260902170009 96 293 2.0 10.0 0.00 0.00 0.00 45 1018.5
20260902165509 96 279 5.0 10.0 0.00 0.00 0.00 45 1018.6
20260902165011 96 220 1.0 7.0 0.00 0.00 0.00 48 1018.6
20260902164513 96 257 3.0 7.0 0.00 0.00 0.00 50 1018.7
20260902164006 96 294 2.0 8.0 0.00 0.00 0.00 49 1018.8
20260902163503 95 288 2.0 9.0 0.00 0.00 0.00 49 1018.9
20260902163002 94 335 1.0 11.0 0.00 0.00 0.00 50 1018.9
20260902162502 94 322 5.0 11.0 0.00 0.00 0.00 50 1019.0
20260902162100 94 331 4.0 9.0 0.00 0.00 0.00 50 1019.0
20260902161559 94 269 4.0 10.0 0.00 0.00 0.00 50 1019.0
20260902161058 94 323 3.0 10.0 0.00 0.00 0.00 51 1019.1
20260902160509 94 281 2.0 12.0 0.00 0.00 0.00 52 1019.1
20260902160009 94 309 3.0 12.0 0.00 0.00 0.00 54 1019.1
20260902155505 94 307 4.0 9.0 0.00 0.00 0.00 53 1019.2
20260902155007 94 309 1.0 11.0 0.00 0.00 0.00 56 1019.1
20260902154507 93 341 4.0 11.0 0.00 0.00 0.00 55 1019.1
20260902154001 92 238 1.0 9.0 0.00 0.00 0.00 57 1019.1
20260902153600 92 171 3.0 12.0 0.00 0.00 0.00 57 1019.3
20260902153058 92 207 3.0 12.0 0.00 0.00 0.00 57 1019.2
20260902152556 91 263 2.0 11.0 0.00 0.00 0.00 59 1019.3
20260902152055 90 138 6.0 11.0 0.00 0.00 0.00 59 1019.4
20260902151558 89 138 3.0 11.0 0.00 0.00 0.00 61 1019.3
20260902151057 90 301 3.0 9.0 0.00 0.00 0.00 60 1019.5
20260902150506 90 325 1.0 9.0 0.00 0.00 0.00 59 1019.4
20260902150009 90 272 3.0 9.0 0.00 0.00 0.00 61 1019.4
20260902145504 90 242 1.0 7.0 0.00 0.00 0.00 61 1019.4
20260902145001 90 24 4.0 9.0 0.00 0.00 0.00 60 1019.3
20260902144602 89 180 2.0 9.0 0.00 0.00 0.00 62 1019.4
20260902144059 89 223 1.0 7.0 0.00 0.00 0.00 63 1019.4
20260902143558 88 216 2.0 9.0 0.00 0.00 0.00 63 1019.5
20260902143057 88 156 3.0 9.0 0.00 0.00 0.00 64 1019.4
20260902142556 88 177 2.0 7.0 0.00 0.00 0.00 66 1019.5
20260902142054 88 232 2.0 6.0 0.00 0.00 0.00 66 1019.5
20260902141554 87 288 2.0 6.0 0.00 0.00 0.00 67 1019.5
20260902141051 87 313 1.0 5.0 0.00 0.00 0.00 67 1019.4
20260902140502 86 209 1.0 6.0 0.00 0.00 0.00 69 1019.6
20260902140108 85 192 2.0 6.0 0.00 0.00 0.00 70 1019.7
20260902135558 84 173 1.0 6.0 0.00 0.00 0.00 70 1019.7
20260902135056 84 171 1.0 6.0 0.00 0.00 0.00 70 1019.7
20260902134555 83 159 1.0 7.0 0.00 0.00 0.00 73 1019.7
20260902134053 81 228 0.0 4.0 0.00 0.00 0.00 76 1019.8
20260902133552 79 307 0.0 5.0 0.00 0.00 0.00 82 1019.8
20260902133101 76 332 1.0 5.0 0.00 0.00 0.00 89 1019.8
20260902132550 74 186 0.0 2.0 0.00 0.00 0.00 92 1019.8
20260902132048 73 221 0.0 2.0 0.00 0.00 0.00 93 1019.9
20260902131557 72 187 0.0 1.0 0.00 0.00 0.00 93 1019.9
20260902131048 72 166 0.0 1.0 0.00 0.00 0.00 94 1019.9
20260902130650 71 163 0.0 1.0 0.00 0.00 0.00 94 1019.8
20260902130054 71 163 0.0 0.0 0.00 0.00 0.00 94 1019.8
20260902125555 70 163 0.0 0.0 0.00 0.00 0.00 94 1019.8
20260902125051 70 163 0.0 0.0 0.00 0.00 0.00 95 1019.8
20260902124551 69 163 0.0 0.0 0.00 0.00 0.00 95 1019.9
20260902124049 69 163 0.0 0.0 0.00 0.00 0.00 95 1019.9
20260902123550 69 163 0.0 0.0 0.00 0.00 0.00 94 1019.9
20260902123047 69 163 0.0 0.0 0.00 0.00 0.00 94 1019.8
20260902122547 69 163 0.0 0.0 0.00 0.00 0.00 94 1019.8
20260902122045 69 163 0.0 0.0 0.00 0.00 0.00 95 1019.6
20260902121552 69 163 0.0 0.0 0.00 0.00 0.00 95 1019.7
20260902121045 68 163 0.0 0.0 0.00 0.00 0.00 95 1019.6
20260902120645 68 163 0.0 0.0 0.00 0.00 0.00 95 1019.6
20260902120045 68 155 0.0 0.0 0.00 0.00 0.00 95 1019.5
20260902115545 68 155 0.0 0.0 0.00 0.00 0.00 95 1019.5
20260902115044 68 155 0.0 0.0 0.00 0.00 0.00 95 1019.3
20260902114550 68 155 0.0 0.0 0.00 0.00 0.00 94 1019.3
20260902114043 68 155 0.0 0.0 0.00 0.00 0.00 94 1019.2
20260902113542 68 155 0.0 0.0 0.00 0.00 0.00 94 1019.2
20260902113053 68 155 0.0 0.0 0.00 0.00 0.00 94 1019.2
20260902112540 69 155 0.0 0.0 0.00 0.00 0.00 94 1019.1
20260902112039 69 155 0.0 0.0 0.00 0.00 0.00 94 1019.0
20260902111539 69 155 0.0 0.0 0.00 0.00 0.00 94 1018.8
20260902111038 69 155 0.0 0.0 0.00 0.00 0.00 94 1018.8
20260902110640 69 155 0.0 0.0 0.00 0.00 0.00 94 1018.8
20260902110101 69 155 0.0 0.0 0.00 0.00 0.00 94 1018.7
20260902105559 69 155 0.0 0.0 0.00 0.00 0.00 94 1018.7
20260902105059 69 155 0.0 0.0 0.00 0.00 0.00 94 1018.6
20260902104611 69 155 0.0 0.0 0.00 0.00 0.00 94 1018.7
20260902104057 69 155 0.0 0.0 0.00 0.00 0.00 94 1018.6
20260902103557 69 155 0.0 0.0 0.00 0.00 0.00 94 1018.5
20260902103104 69 155 0.0 0.0 0.00 0.00 0.00 93 1018.7
20260902102558 69 155 0.0 0.0 0.00 0.00 0.00 93 1018.6
20260902102056 69 155 0.0 0.0 0.00 0.00 0.00 93 1018.6
20260902101556 70 155 0.0 0.0 0.00 0.00 0.00 93 1018.6
20260902101055 70 155 0.0 0.0 0.00 0.00 0.00 93 1018.5